User: anonymous   Login
Location: Unspecified
(0.0000°N, 0.0000°E)
Time: 15:02:16
(UTC+02:00)
Language:

Cosmos 1536 - Orbit

View from above orbital plane
View from above orbital plane
View from above satellite
View from above satellite

Ground track
Ground track

The orbit data is extracted from the following two-line orbital elements,

1 14699U 84013A   16127.12582778  .00001071  00000-0  74035-4 0  9994
2 14699  82.5264   3.5194 0013354  10.9983 349.1533 15.04674178751875
Epoch (UTC): 06 May 2016 03:01:11
Eccentricity: 0.0013354
inclination: 82.5264°
perigee height: 543 km
apogee height: 562 km
right ascension of ascending node: 3.5194°
argument of perigee: 10.9983°
revolutions per day: 15.04674178
mean anomaly at epoch: 349.1533°
orbit number at epoch: 75187

The dashed part of the orbit path shows where the satellite is in the earth's shadow,  

DLR